[[{"header":{"parameterUnit":"m.s-1","parameterCategory":1,"la1":30.2991,"la2":30.254,"lo1":-89.0895,"lo2":-89.0444,"dy":0.0017,"dx":0.0017,"nx":28,"ny":28,"refTime":"2025-03-28T21:00:00:Z","depth":0,"parameterNumber":2,"parameterNumberName":"U-component_of_WINDS"},"data":[0,0,0,0,0,0,0,0,0,0,0,0,0,0,0,0,0,0,0,0,0,0,0,0,0,0,0,0,0,0,0,0,0,0,0,0,0,0,0,0,0,0,0,0,0,0,0,0,0,0,0,0,0,0,0,0,0,0,-5.2393,-5.2393,0,-5.2479,-5.2479,-5.248,-5.2442,-5.244,-5.2438,-5.2436,-5.2529,-5.2533,-5.2538,0,0,0,0,0,0,0,0,0,0,0,0,0,-5.2201,-5.2204,-5.2392,-5.2394,-5.2395,-5.2478,-5.248,-5.2481,-5.2442,-5.244,-5.2437,-5.2435,-5.2527,-5.2533,-5.2538,0,0,0,0,0,0,0,0,0,0,0,0,0,-5.2285,-5.2205,-5.2392,-5.2385,-5.2386,-5.2478,-5.248,-5.2481,-5.2443,-5.244,-5.2436,-5.2433,-5.2526,-5.2532,-5.2539,-5.2645,0,0,-5.2559,-5.2562,0,0,0,0,0,0,0,0,-5.228,-5.2292,-5.2385,-5.2386,-5.2386,-5.2446,-5.2446,-5.2536,-5.2444,-5.2421,-5.2435,-5.2432,-5.2504,-5.2513,-5.2536,-5.2649,-5.2653,-5.256,-5.2564,-5.2567,-5.2569,0,0,0,0,0,0,0,-5.2275,-5.2288,-5.2427,-5.2387,-5.2387,-5.238,-5.2388,-5.2463,-5.248,-5.2423,-5.242,-5.2431,-5.2504,-5.2529,-5.2538,-5.2654,-5.256,-5.2566,-5.257,-5.2572,-5.286,-5.2863,0,0,0,0,0,0,-5.2268,-5.2284,-5.2424,-5.2429,-5.2324,-5.2386,-5.2395,-5.243,-5.2479,-5.2483,-5.2433,-5.2429,-5.252,-5.253,-5.2541,-5.2668,-5.2567,-5.2573,-5.2577,-5.2856,-5.286,-5.2864,0,0,0,0,0,0,-5.2264,-5.2281,-5.242,-5.2356,-5.2373,-5.2393,-5.2432,-5.2434,-5.2459,-5.2487,-5.249,-5.2456,-5.2517,-5.2531,-5.2619,-5.267,-5.2576,-5.2582,-5.2852,-5.2857,-5.2862,-5.2922,0,0,0,0,0,0,-5.2259,-5.228,-5.2319,-5.2357,-5.2376,-5.2495,-5.2435,-5.2438,-5.247,-5.2465,-5.2509,-5.2513,-5.2516,-5.2609,-5.2626,-5.2678,-5.2588,-5.2847,-5.2854,-5.2861,-5.2916,-5.2929,-5.2941,0,0,0,0,0,-5.2252,-5.2333,-5.2321,-5.2338,-5.2425,-5.2498,-5.251,-5.251,-5.2474,-5.2515,-5.2533,-5.2512,-5.2663,-5.2618,-5.2637,-5.2692,-5.2844,-5.2852,-5.286,-5.291,-5.2927,-5.294,0,0,0,0,0,0,-5.2302,-5.2338,-5.2325,-5.242,-5.2456,-5.2492,-5.2542,-5.2527,-5.2575,-5.2568,-5.2568,-5.2579,-5.2669,-5.269,-5.264,-5.2797,-5.2748,-5.276,-5.278,-5.2796,-5.2808,-5.28,-5.2593,0,0,0,0,0,-5.2324,-5.2379,-5.2408,-5.249,-5.2508,-5.2522,-5.2554,-5.2551,-5.2589,-5.2605,-5.2629,-5.2668,-5.2725,-5.2762,-5.2815,-5.2919,-5.2929,-5.2967,-5.2979,-5.2989,-5.2999,-5.3056,-5.3073,-5.2891,-5.2891,-5.2891,0,0,-5.2371,-5.2397,-5.2432,-5.25,-5.2528,-5.2586,-5.2535,-5.2599,-5.2642,-5.2615,-5.2698,-5.2718,-5.2762,-5.2858,-5.2902,-5.2878,-5.3052,-5.2999,-5.3007,-5.3012,-5.3066,-5.3083,-5.3099,-5.2896,-5.2895,-5.2894,0,0,-5.2484,-5.251,-5.258,-5.2609,-5.265,-5.2659,-5.2677,-5.2715,-5.2726,-5.2809,-5.279,-5.2843,-5.294,-5.2972,-5.3001,-5.3128,-5.3111,-5.3146,-5.321,-5.3265,-5.328,-5.3292,-5.3337,-5.3353,-5.3156,-5.3156,-5.3156,0,-5.2537,-5.2621,-5.2619,-5.2684,-5.2715,-5.2692,-5.2764,-5.2793,-5.2851,-5.2874,-5.2846,-5.2967,-5.2995,-5.3098,-5.3129,-5.3154,-5.3174,-5.314,-5.3277,-5.329,-5.3302,-5.3345,-5.3362,-5.316,-5.316,-5.3159,-5.3159,0,-5.2684,-5.2743,-5.2796,-5.285,-5.2887,-5.2956,-5.2966,-5.3004,-5.2999,-5.3011,-5.3097,-5.313,-5.319,-5.3215,-5.3211,-5.3318,-5.3302,-5.3276,-5.3226,-5.3323,-5.3363,-5.338,-5.3166,-5.3164,-5.3163,-5.3162,0,0,-5.283,-5.2882,-5.2901,-5.2926,-5.2971,-5.3018,-5.3086,-5.3143,-5.3176,-5.3218,-5.3275,-5.3358,-5.3335,-5.3368,-5.3367,-5.3416,-5.3515,-5.3385,-5.3386,-5.3407,-5.3635,-5.3653,-5.3672,-5.3504,-5.3507,-5.351,-5.3631,0,-5.2946,-5.3063,-5.3063,-5.3172,-5.3227,-5.3206,-5.3266,-5.3301,-5.3316,-5.3366,-5.3383,-5.3441,-5.3405,-5.3425,-5.3473,-5.3492,-5.356,-5.3484,-5.3559,-5.3561,-5.3546,-5.3693,-5.3713,-5.3826,-5.3647,-5.365,-5.3652,0,-5.3096,-5.3141,-5.3254,-5.3291,-5.3314,-5.3368,-5.342,-5.3468,-5.3508,-5.3515,-5.3553,-5.3545,-5.3617,-5.3566,-5.3665,-5.3613,-5.3644,-5.3659,-5.3663,-5.3669,-5.3611,-5.3702,-5.3862,-5.3878,-5.3677,-5.3675,-5.3673,0,-5.319,-5.3279,-5.3358,-5.338,-5.3426,-5.3464,-5.3485,-5.3522,-5.3556,-5.3603,-5.3625,-5.368,-5.371,-5.3754,-5.3763,-5.3725,-5.3862,-5.3812,-5.387,-5.387,-5.3899,-5.3897,-5.4064,-5.3921,-5.3921,-5.3921,-5.392,0,-5.3319,-5.3389,-5.3401,-5.3449,-5.3528,-5.3529,-5.3608,-5.3626,-5.3659,-5.3713,-5.37,-5.375,-5.3759,-5.3812,-5.382,-5.39,-5.3915,-5.3923,-5.3924,-5.3923,-5.3922,-5.3943,-5.3935,-5.3925,-5.3924,-5.3923,-5.3922,0,-5.3437,-5.3447,-5.3532,-5.3568,-5.3579,-5.3635,-5.3667,-5.3715,-5.3728,-5.3795,-5.3811,-5.3833,-5.3895,-5.3907,-5.3982,-5.3987,-5.4083,-5.4077,-5.4068,-5.4067,-5.4125,-5.4119,-5.431,-5.4336,-5.4177,-5.4178,-5.418,0,-5.3517,-5.3571,-5.3612,-5.3646,-5.3668,-5.3723,-5.3757,-5.3762,-5.3798,-5.3849,-5.3891,-5.3951,-5.3999,-5.41,-5.4123,-5.418,-5.4174,-5.4238,-5.4183,-5.4181,-5.4175,-5.4171,-5.4176,-5.4248,-5.4249,-5.4251,-5.4252,0,-5.366,-5.3662,-5.3711,-5.3762,-5.3803,-5.3844,-5.3884,-5.3913,-5.3922,-5.3965,-5.4027,-5.4064,-5.4139,-5.42,-5.4257,-5.4281,-5.4269,-5.4269,-5.4286,-5.4285,-5.4278,-5.4282,-5.4096,-5.4264,-5.4263,-5.4262,-5.4262,-5.4261,-5.3761,-5.3807,-5.3843,-5.3898,-5.3928,-5.3965,-5.4011,-5.4029,-5.4081,-5.4141,-5.4141,-5.4209,-5.425,-5.4325,-5.4352,-5.4407,-5.4387,-5.4411,-5.4417,-5.4423,-5.4428,-5.427,-5.4418,-5.4417,-5.4417,-5.4417,-5.4417,0,-5.3902,-5.3924,-5.3974,-5.4029,-5.4073,-5.4056,-5.4099,-5.4137,-5.4196,-5.4234,-5.4282,-5.4354,-5.4413,-5.4441,-5.4499,-5.4538,-5.4534,-5.4553,-5.455,-5.4555,-5.4442,-5.4422,-5.4555,-5.4555,-5.4555,-5.4555,-5.4555,-5.4555,-5.398,-5.4057,-5.4064,-5.4156,-5.4179,-5.4244,-5.427,-5.4304,-5.4334,-5.4414,-5.4462,-5.448,-5.4514,-5.4575,-5.4629,-5.4636,-5.4658,-5.468,-5.4684,-5.4578,-5.4563,-5.455,-5.453,-5.4685,-5.4685,-5.4793,-5.4794,-5.4794]},{"header":{"parameterUnit":"m.s-1","parameterCategory":1,"la1":30.2991,"la2":30.254,"lo1":-89.0895,"lo2":-89.0444,"dy":0.0017,"dx":0.0017,"nx":28,"ny":28,"refTime":"2025-03-28T21:00:00:Z","depth":0,"parameterNumber":3,"parameterNumberName":"V-component_of_WINDS"},"data":[0,0,0,0,0,0,0,0,0,0,0,0,0,0,0,0,0,0,0,0,0,0,0,0,0,0,0,0,0,0,0,0,0,0,0,0,0,0,0,0,0,0,0,0,0,0,0,0,0,0,0,0,0,0,0,0,0,0,5.0251,5.0254,0,5.0484,5.0487,5.049,5.0597,5.0597,5.0597,5.0597,5.083,5.0836,5.0843,0,0,0,0,0,0,0,0,0,0,0,0,0,4.9896,4.9902,5.0251,5.0254,5.0257,5.0484,5.0487,5.049,5.0597,5.0597,5.0597,5.0597,5.0828,5.0835,5.0843,0,0,0,0,0,0,0,0,0,0,0,0,0,5.0081,4.9904,5.0251,5.0338,5.0348,5.0483,5.0487,5.0491,5.0597,5.0597,5.0597,5.0596,5.0825,5.0835,5.0844,5.0909,0,0,5.0873,5.0878,0,0,0,0,0,0,0,0,5.0071,5.0094,5.0322,5.0332,5.0344,5.0512,5.0448,5.0631,5.0597,5.0502,5.0597,5.0596,5.0724,5.0742,5.0786,5.092,5.093,5.0874,5.088,5.0884,5.0887,0,0,0,0,0,0,0,5.0058,5.0085,5.0343,5.0325,5.0338,5.0364,5.0391,5.0483,5.0612,5.0511,5.0519,5.0545,5.073,5.0777,5.0792,5.0933,5.0874,5.0883,5.0888,5.0892,5.1135,5.1136,0,0,0,0,0,0,5.0031,5.0074,5.0336,5.035,5.0204,5.0371,5.04,5.0458,5.0611,5.0634,5.0545,5.055,5.076,5.0781,5.0801,5.0889,5.0884,5.0893,5.0899,5.1134,5.1135,5.1136,0,0,0,0,0,0,5.0023,5.0054,5.0327,5.0215,5.0251,5.0378,5.0441,5.0463,5.051,5.0637,5.066,5.057,5.0761,5.0787,5.0882,5.0899,5.0897,5.0906,5.1134,5.1135,5.1136,5.1064,0,0,0,0,0,0,5.0013,5.005,5.0076,5.0214,5.0257,5.0405,5.0442,5.0467,5.0526,5.0534,5.0666,5.0688,5.0763,5.0868,5.0892,5.0912,5.0914,5.1133,5.1134,5.1135,5.1066,5.1063,5.106,0,0,0,0,0,5.0,5.0045,5.0077,5.0108,5.0292,5.0405,5.043,5.0516,5.0527,5.0555,5.0637,5.0684,5.0893,5.0876,5.0905,5.0928,5.1132,5.1134,5.1135,5.1067,5.1063,5.106,0,0,0,0,0,0,4.9903,5.0065,5.0102,5.0194,5.0285,5.0423,5.046,5.0509,5.0598,5.0601,5.0703,5.0732,5.0819,5.0883,5.0861,5.1,5.1017,5.1024,5.0955,5.0953,5.095,5.0933,5.0922,0,0,0,0,0,4.9893,4.9972,5.0109,5.0176,5.0221,5.0332,5.0385,5.0444,5.0542,5.0581,5.067,5.0763,5.085,5.0905,5.0991,5.1075,5.1107,5.1105,5.1102,5.11,5.1105,5.1157,5.1158,5.1141,5.1141,5.1141,0,0,4.9872,4.997,5.0013,5.016,5.0238,5.0317,5.0364,5.0445,5.0506,5.0593,5.0689,5.0758,5.0868,5.0958,5.1003,5.1014,5.1117,5.1102,5.1098,5.1106,5.1158,5.116,5.1161,5.1142,5.1142,5.1142,0,0,4.9875,4.9956,5.0024,5.0102,5.022,5.0295,5.031,5.0442,5.0492,5.0591,5.0659,5.0731,5.0878,5.0955,5.1013,5.1048,5.1095,5.1073,5.1059,5.1108,5.1109,5.1111,5.1125,5.1129,5.1078,5.1078,5.1078,0,4.9833,4.9957,5.0051,5.013,5.0193,5.0279,5.0347,5.0418,5.0557,5.0599,5.061,5.0799,5.0879,5.099,5.0999,5.1042,5.1064,5.1059,5.1102,5.1104,5.1107,5.1122,5.1127,5.1074,5.1075,5.1075,5.1075,0,4.9901,4.9986,5.0026,5.0162,5.0229,5.0302,5.0407,5.0464,5.0518,5.0591,5.0691,5.0791,5.0901,5.0931,5.0983,5.105,5.1054,5.1082,5.1101,5.1104,5.112,5.1126,5.107,5.1071,5.1072,5.1073,0,0,4.9849,5.0038,5.0051,5.0115,5.0254,5.0321,5.0398,5.0508,5.0556,5.0649,5.0718,5.0842,5.087,5.0936,5.0997,5.104,5.1065,5.1064,5.1068,5.1062,5.1148,5.1126,5.1131,5.1097,5.1098,5.1099,5.1139,0,4.9872,5.0017,5.0105,5.0213,5.0294,5.0378,5.0446,5.0537,5.0608,5.0687,5.0764,5.0852,5.0881,5.0922,5.0968,5.1052,5.1084,5.105,5.1161,5.1164,5.1132,5.1139,5.1117,5.1149,5.1145,5.1147,5.1147,0,4.9918,5.0013,5.013,5.0263,5.03,5.0359,5.0469,5.0543,5.0649,5.0698,5.0773,5.0836,5.0922,5.0934,5.1053,5.1029,5.108,5.1128,5.1131,5.1145,5.1156,5.1155,5.1161,5.1167,5.1158,5.1157,5.1156,0,4.987,5.0027,5.0119,5.017,5.0326,5.0367,5.0433,5.054,5.0601,5.0696,5.0738,5.084,5.0896,5.0974,5.1064,5.1064,5.1175,5.1194,5.1218,5.1216,5.1238,5.1236,5.1254,5.1268,5.1268,5.1268,5.1268,0,4.9887,4.9956,5.01,5.0156,5.0236,5.0337,5.0413,5.0486,5.0581,5.0653,5.0731,5.0796,5.091,5.0989,5.1059,5.1149,5.1173,5.1215,5.1233,5.1209,5.1204,5.1244,5.1245,5.127,5.1269,5.1269,5.1269,0,4.9846,4.9945,5.0051,5.0192,5.0229,5.0282,5.0402,5.046,5.0536,5.0626,5.0653,5.0772,5.087,5.0967,5.1098,5.1146,5.1235,5.1258,5.1199,5.121,5.1229,5.1227,5.1275,5.1287,5.1291,5.1291,5.1291,0,4.9851,4.9907,5.0054,5.0109,5.0175,5.0262,5.0326,5.0427,5.0491,5.0618,5.0661,5.0766,5.0855,5.1008,5.1105,5.1207,5.1234,5.1244,5.125,5.1225,5.1237,5.1233,5.124,5.1241,5.1241,5.124,5.124,0,4.985,4.9897,4.9987,5.0096,5.0171,5.026,5.0352,5.0392,5.0512,5.0579,5.0682,5.0751,5.0888,5.0991,5.1104,5.1172,5.1226,5.1238,5.1249,5.1225,5.119,5.1211,5.1193,5.1236,5.1236,5.1237,5.1237,5.1237,4.9834,4.9889,5.0002,5.01,5.0181,5.0266,5.0329,5.0414,5.0502,5.0622,5.0677,5.0781,5.0888,5.1047,5.1114,5.1197,5.121,5.1226,5.1231,5.1233,5.1229,5.1176,5.1217,5.1218,5.1218,5.1218,5.1218,0,4.9838,4.9916,5.0006,5.0134,5.0212,5.0258,5.0364,5.0425,5.0517,5.0613,5.0701,5.082,5.0921,5.1028,5.1136,5.1181,5.1209,5.1206,5.1204,5.122,5.1209,5.119,5.1182,5.1182,5.1182,5.1182,5.1182,5.1182,4.985,4.9946,5.0006,5.0143,5.0221,5.0325,5.0381,5.0461,5.0539,5.0669,5.0755,5.0825,5.0926,5.1042,5.1138,5.1166,5.1203,5.1193,5.1229,5.1218,5.122,5.1222,5.1205,5.12,5.12,5.1233,5.1233,5.1234]}]]